Visibility
15.0 15.0 15.0 15.0 15.0 15.0 15.0 15.0 11.9 15.0 15.0 15.0 15.0 15.0 15.0 15.0 15.0 15.0 15.0 15.0 15.0 15.0 15.0 15.0 15.0 15.0 15.0 15.0 15.0 15.0 15.0 15.0 15.0 15.0 15.0 15.0 15.0 15.0 15.0 14.9 15.0 15.0 15.0 15.0
15.0 15.0 15.0 15.0 15.0 15.0 15.0 15.0 15.0 15.0 15.0 15.0 15.0 15.0 15.0 15.0 15.0 15.0 15.0 15.0 15.0 15.0 15.0 15.0 15.0 15.0 15.0 15.0 15.0 15.0 15.0 15.0 15.0 15.0 15.0 15.0 15.0 15.0 15.0 15.0 15.0 15.0 15.0 15.0
15.0 15.0 15.0 15.0 15.0 15.0 15.0 15.0 15.0 15.0 15.0 15.0 15.0 15.0 15.0 15.0 15.0 15.0 15.0 15.0 15.0 15.0 15.0 15.0 15.0 15.0 15.0 15.0 15.0 15.0 15.0 15.0 11.8 14.5 14.3 15.0 14.6 15.0 15.0 15.0 15.0 15.0 15.0 15.0
6.8 15.0 6.4 15.0 15.0 15.0 15.0 15.0 15.0 15.0 15.0 15.0 15.0 15.0 15.0 15.0 15.0 15.0 15.0 15.0 15.0 15.0 15.0 15.0 15.0 15.0 15.0 15.0 15.0 15.0 15.0 15.0 15.0 15.0 15.0 15.0 15.0 15.0 15.0 15.0 15.0 15.0 15.0 15.0
1.4 14.8 15.0 15.0 15.0 15.0 15.0 15.0 15.0 15.0 15.0 15.0 15.0 15.0 15.0 15.0 15.0 15.0 15.0 15.0 15.0 15.0 15.0 15.0 15.0 15.0 15.0 15.0 15.0 15.0 15.0 15.0 15.0 15.0 15.0 15.0 15.0 15.0 15.0 15.0 15.0 15.0 15.0 15.0
0.1 0.5 0.5 15.0 15.0 15.0 15.0 15.0 15.0 15.0 15.0 15.0 15.0 1.9 15.0 15.0 11.9 15.0 15.0 15.0 15.0 15.0 15.0 15.0 15.0 15.0 15.0 15.0 15.0 15.0 15.0 15.0 15.0 15.0 15.0 15.0 15.0 15.0 15.0 15.0 15.0 15.0 15.0 15.0
9.7 0.7 8.9 15.0 15.0 15.0 15.0 14.4 15.0 15.0 15.0 15.0 15.0 15.0 6.2 15.0 15.0 15.0 15.0 15.0 15.0 15.0 15.0 15.0 15.0 15.0 15.0 15.0 15.0 15.0 15.0 15.0 15.0 15.0 15.0 15.0 15.0 15.0 15.0 15.0 15.0 15.0 15.0 15.0
5.5 0.1 3.7 15.0 15.0 15.0 15.0 15.0 15.0 15.0 15.0 15.0 15.0 6.5 14.9 15.0 15.0 15.0 15.0 15.0 15.0 15.0 15.0 15.0 15.0 15.0 15.0 15.0 15.0 15.0 15.0 15.0 15.0 15.0 15.0 15.0 15.0 15.0 15.0 15.0 15.0 15.0 15.0 15.0
12.7 14.9 15.0 15.0 15.0 15.0 15.0 15.0 15.0 15.0 15.0 15.0 5.8 15.0 15.0 15.0 15.0 15.0 15.0 15.0 15.0 15.0 15.0 15.0 15.0 15.0 15.0 15.0 15.0 15.0 15.0 15.0 15.0 15.0 15.0 15.0 15.0 15.0 15.0 15.0 9.9 8.3 5.4 15.0
15.0 15.0 15.0 15.0 15.0 15.0 15.0 15.0 15.0 11.5 13.2 6.9 15.0 15.0 15.0 15.0 15.0 15.0 15.0 15.0 15.0 15.0 15.0 15.0 15.0 15.0 15.0 15.0 15.0 15.0 15.0 15.0 15.0 15.0 15.0 15.0 15.0 15.0 14.8 6.4 5.6 6.2 11.1 4.0
15.0 15.0 15.0 15.0 14.0 15.0 14.3 15.0 5.8 10.8 14.6 15.0 15.0 15.0 15.0 15.0 15.0 15.0 15.0 15.0 15.0 15.0 15.0 15.0 15.0 15.0 15.0 15.0 15.0 15.0 15.0 15.0 15.0 15.0 15.0 15.0 15.0 15.0 15.0 15.0 7.9 2.0 13.8 5.0
15.0 15.0 15.0 15.0 3.0 7.5 9.5 10.1 14.9 14.9 15.0 15.0 15.0 15.0 15.0 15.0 15.0 15.0 15.0 15.0 15.0 15.0 15.0 15.0 15.0 15.0 15.0 15.0 15.0 15.0 15.0 15.0 15.0 10.4 8.1 10.1 15.0 15.0 15.0 15.0 15.0 15.0 15.0 15.0
15.0 15.0 11.6 4.0 14.7 14.4 14.9 15.0 15.0 15.0 15.0 15.0 15.0 15.0 15.0 15.0 15.0 15.0 15.0 15.0 15.0 15.0 15.0 15.0 15.0 15.0 15.0 15.0 15.0 14.6 6.4 14.9 7.8 13.8 6.3 6.3 6.3 2.4 0.7 15.0 15.0 15.0 15.0 15.0
15.0 10.5 13.9 15.0 0.2 15.0 15.0 15.0 15.0 15.0 15.0 15.0 15.0 15.0 15.0 15.0 15.0 15.0 15.0 15.0 15.0 15.0 15.0 15.0 15.0 15.0 15.0 15.0 15.0 6.6 4.6 9.9 4.5 4.6 4.3 4.9 3.6 2.0 3.0 1.7 0.7 6.1 13.7 15.0
15.0 15.0 15.0 15.0 15.0 15.0 15.0 15.0 15.0 15.0 15.0 15.0 15.0 15.0 15.0 15.0 15.0 15.0 15.0 15.0 15.0 15.0 15.0 15.0 14.6 15.0 15.0 15.0 15.0 10.1 14.7 6.3 4.3 4.1 4.0 4.1 3.1 4.1 4.1 4.0 4.0 4.1 4.5 15.0
15.0 15.0 15.0 15.0 15.0 15.0 15.0 15.0 15.0 15.0 15.0 15.0 15.0 15.0 15.0 15.0 15.0 15.0 15.0 3.4 15.0 15.0 15.0 4.7 0.2 12.4 15.0 1.8 1.6 1.4 15.0 14.9 10.1 4.5 2.3 4.2 4.1 4.1 4.1 3.4 3.5 3.7 3.9 1.3
15.0 15.0 15.0 15.0 15.0 15.0 15.0 15.0 15.0 15.0 15.0 15.0 15.0 15.0 3.0 1.6 0.1 15.0 15.0 0.9 1.6 9.5 10.4 15.0 14.1 15.0 14.4 15.0 5.7 2.9 6.8 11.5 5.3 5.0 4.8 3.8 0.9 3.0 1.6 0.9 0.9 2.1 3.4 1.6
15.0 15.0 15.0 15.0 15.0 15.0 15.0 15.0 15.0 15.0 15.0 15.0 15.0 15.0 15.0 11.8 11.5 15.0 15.0 0.1 4.7 0.9 15.0 10.7 15.0 15.0 0.2 15.0 8.3 1.8 0.8 1.0 0.3 0.5 2.9 2.7 4.0 4.1 3.3 1.2 0.9 1.4 3.4 4.1
15.0 15.0 15.0 15.0 15.0 15.0 15.0 15.0 15.0 15.0 15.0 15.0 15.0 15.0 15.0 15.0 15.0 15.0 0.2 0.1 0.1 0.3 14.5 7.2 4.2 15.0 14.8 15.0 8.2 7.0 1.8 0.4 0.4 2.1 3.4 2.0 3.7 4.1 2.9 1.2 1.4 1.6 1.9 3.3
15.0 15.0 15.0 15.0 15.0 15.0 15.0 15.0 15.0 15.0 15.0 15.0 15.0 15.0 9.8 15.0 15.0 1.1 0.1 0.3 0.1 5.6 15.0 15.0 15.0 15.0 15.0 5.0 2.2 3.8 0.8 0.4 1.0 2.7 3.0 2.7 1.6 3.3 3.2 2.7 2.5 1.7 2.6 3.2
15.0 15.0 15.0 15.0 15.0 15.0 15.0 15.0 15.0 15.0 15.0 15.0 15.0 15.0 15.0 15.0 3.1 0.1 0.1 0.1 0.8 15.0 15.0 15.0 15.0 15.0 6.8 3.0 15.0 5.0 1.6 0.6 0.4 0.3 2.0 2.2 0.9 1.1 2.7 3.4 2.4 1.9 2.7 4.1
15.0 15.0 15.0 15.0 15.0 15.0 15.0 15.0 15.0 15.0 15.0 15.0 15.0 15.0 9.7 0.3 0.2 0.1 0.1 1.1 13.5 15.0 15.0 15.0 15.0 15.0 14.2 2.3 15.0 1.7 0.6 0.4 0.3 0.3 0.6 0.6 0.6 0.4 1.7 3.9 3.9 3.0 2.8 3.9
15.0 15.0 15.0 15.0 15.0 15.0 15.0 15.0 15.0 15.0 15.0 15.0 11.3 0.1 0.6 0.2 0.2 0.2 5.4 15.0 15.0 15.0 15.0 15.0 15.0 15.0 3.0 0.9 2.6 7.0 2.2 0.7 0.5 0.3 0.7 0.6 0.4 0.5 0.4 3.5 4.0 2.8 3.5 4.0
15.0 15.0 15.0 15.0 15.0 15.0 15.0 15.0 15.0 15.0 15.0 15.0 15.0 11.1 1.1 4.0 4.9 7.5 9.7 15.0 14.8 15.0 15.0 15.0 15.0 15.0 0.7 0.9 0.6 0.5 0.5 1.9 6.5 1.9 0.5 0.4 0.4 0.6 0.6 0.5 2.6 3.6 3.3 4.1
15.0 15.0 15.0 15.0 15.0 15.0 15.0 15.0 15.0 15.0 13.2 7.7 5.8 10.4 8.2 0.9 15.0 11.4 7.6 12.3 0.1 0.1 14.9 15.0 15.0 3.5 3.5 0.8 0.3 0.7 0.6 0.5 0.2 0.1 1.1 0.6 0.5 0.5 2.0 0.8 2.2 4.0 4.0 4.1
15.0 15.0 15.0 15.0 15.0 15.0 15.0 15.0 5.1 3.2 0.8 0.3 6.3 6.6 1.6 1.3 7.3 15.0 15.0 15.0 7.7 5.6 14.0 12.3 3.7 1.7 6.8 2.3 0.5 0.5 0.8 0.6 0.4 1.0 0.5 0.4 0.5 0.4 0.7 1.6 1.1 4.0 5.1 5.0
15.0 2.8 14.7 15.0 15.0 15.0 15.0 15.0 0.1 0.0 0.1 0.4 6.2 4.8 3.3 1.6 2.6 4.8 9.0 15.0 15.0 15.0 5.4 3.6 0.3 2.3 5.2 1.2 0.6 2.7 2.4 1.6 0.6 0.4 0.7 0.4 0.2 0.3 0.4 0.5 0.5 0.5 5.6 5.0